[[{"header":{"parameterUnit":"m.s-1","parameterCategory":1,"la1":30.2991,"la2":30.254,"lo1":-89.0895,"lo2":-89.0444,"dy":0.0017,"dx":0.0017,"nx":28,"ny":28,"refTime":"2026-02-11T09:00:00:Z","depth":0,"parameterNumber":2,"parameterNumberName":"U-component_of_WINDS"},"data":[0,0,0,0,0,0,0,0,0,0,0,0,0,0,0,0,0,0,0,0,0,0,0,0,0,0,0,0,0,0,0,0,0,0,0,0,0,0,0,0,0,0,0,0,0,0,0,0,0,0,0,0,0,0,0,0,0,0,-0.3082,-0.3082,0,-0.3079,-0.3079,-0.3079,-0.3096,-0.3097,-0.3097,-0.3098,-0.3097,-0.3097,-0.3096,0,0,0,0,0,0,0,0,0,0,0,0,0,-0.3102,-0.3102,-0.3082,-0.3082,-0.3082,-0.3079,-0.3079,-0.3079,-0.3096,-0.3097,-0.3097,-0.3098,-0.3097,-0.3097,-0.3096,0,0,0,0,0,0,0,0,0,0,0,0,0,-0.3096,-0.3102,-0.3082,-0.309,-0.3091,-0.3079,-0.3079,-0.3079,-0.3096,-0.3097,-0.3097,-0.3098,-0.3097,-0.3097,-0.3096,-0.3078,0,0,-0.3094,-0.3094,0,0,0,0,0,0,0,0,-0.3096,-0.3095,-0.3089,-0.3089,-0.309,-0.3089,-0.3086,-0.3079,-0.3096,-0.3094,-0.3098,-0.3098,-0.3094,-0.3094,-0.3092,-0.3078,-0.3078,-0.3094,-0.3093,-0.3093,-0.3093,0,0,0,0,0,0,0,-0.3097,-0.3095,-0.3081,-0.3089,-0.309,-0.3094,-0.3094,-0.3085,-0.309,-0.3094,-0.3095,-0.3095,-0.3094,-0.3092,-0.3092,-0.3078,-0.3094,-0.3093,-0.3093,-0.3093,-0.3048,-0.3047,0,0,0,0,0,0,-0.3096,-0.3096,-0.3081,-0.3081,-0.3095,-0.3093,-0.3093,-0.3089,-0.309,-0.3091,-0.3094,-0.3096,-0.3093,-0.3092,-0.3092,-0.307,-0.3093,-0.3093,-0.3092,-0.3048,-0.3047,-0.3047,0,0,0,0,0,0,-0.3096,-0.3094,-0.3081,-0.3089,-0.3087,-0.3092,-0.3087,-0.3088,-0.3086,-0.309,-0.3091,-0.3091,-0.3094,-0.3093,-0.3081,-0.307,-0.3092,-0.3092,-0.3049,-0.3048,-0.3047,-0.3027,0,0,0,0,0,0,-0.3097,-0.3094,-0.3088,-0.3088,-0.3087,-0.307,-0.3086,-0.3088,-0.3085,-0.3086,-0.3087,-0.3088,-0.3094,-0.3082,-0.308,-0.307,-0.3091,-0.305,-0.3049,-0.3047,-0.3029,-0.3025,-0.3022,0,0,0,0,0,-0.3097,-0.3083,-0.3087,-0.3085,-0.3078,-0.307,-0.3069,-0.3075,-0.3084,-0.3077,-0.3079,-0.3088,-0.3071,-0.308,-0.3079,-0.3068,-0.3051,-0.3049,-0.3048,-0.303,-0.3026,-0.3023,0,0,0,0,0,0,-0.3082,-0.3083,-0.3088,-0.3073,-0.3071,-0.3072,-0.3064,-0.3071,-0.3067,-0.3069,-0.3077,-0.3077,-0.3064,-0.3064,-0.3074,-0.305,-0.3063,-0.3061,-0.305,-0.3046,-0.3043,-0.3044,-0.3091,0,0,0,0,0,-0.3077,-0.3069,-0.3071,-0.3057,-0.3056,-0.306,-0.3056,-0.3061,-0.306,-0.3059,-0.3061,-0.3059,-0.3053,-0.305,-0.3045,-0.3028,-0.3029,-0.302,-0.3017,-0.3014,-0.3013,-0.3004,-0.3,-0.3041,-0.3041,-0.3041,0,0,-0.3066,-0.3066,-0.3061,-0.3054,-0.3053,-0.3045,-0.3059,-0.3051,-0.3045,-0.3058,-0.3047,-0.3047,-0.3046,-0.3032,-0.3026,-0.3032,-0.3001,-0.3012,-0.301,-0.301,-0.3001,-0.2997,-0.2994,-0.304,-0.304,-0.304,0,0,-0.3043,-0.3042,-0.303,-0.3028,-0.3026,-0.3028,-0.3025,-0.3025,-0.3026,-0.3014,-0.3023,-0.3017,-0.3007,-0.3005,-0.3004,-0.2977,-0.2985,-0.2975,-0.2959,-0.295,-0.2947,-0.2944,-0.2935,-0.2932,-0.2973,-0.2973,-0.2973,0,-0.3031,-0.3019,-0.3024,-0.3014,-0.301,-0.302,-0.3008,-0.3006,-0.3003,-0.3,-0.3007,-0.2994,-0.2994,-0.2979,-0.2973,-0.297,-0.2968,-0.2976,-0.2947,-0.2944,-0.2942,-0.2933,-0.293,-0.2972,-0.2972,-0.2972,-0.2972,0,-0.3003,-0.2995,-0.2985,-0.298,-0.2976,-0.2965,-0.2969,-0.2963,-0.2968,-0.2969,-0.2957,-0.2957,-0.2952,-0.2948,-0.2953,-0.2933,-0.2938,-0.2945,-0.2959,-0.2937,-0.2929,-0.2925,-0.297,-0.2971,-0.2971,-0.2971,0,0,-0.2973,-0.2968,-0.2965,-0.2962,-0.2959,-0.2953,-0.2942,-0.2936,-0.2931,-0.2928,-0.2919,-0.291,-0.2916,-0.2914,-0.2918,-0.291,-0.2889,-0.2919,-0.2919,-0.2914,-0.2868,-0.2862,-0.2858,-0.2894,-0.2893,-0.2893,-0.2868,0,-0.295,-0.2931,-0.2934,-0.2916,-0.2908,-0.2916,-0.2907,-0.2904,-0.2904,-0.2898,-0.2899,-0.2892,-0.2901,-0.29,-0.2892,-0.2893,-0.288,-0.2895,-0.2887,-0.2886,-0.2888,-0.2854,-0.2849,-0.2826,-0.2865,-0.2864,-0.2864,0,-0.2922,-0.2916,-0.2897,-0.2893,-0.289,-0.2882,-0.2876,-0.2869,-0.2865,-0.2867,-0.2863,-0.2868,-0.2857,-0.2869,-0.2855,-0.2865,-0.2861,-0.2861,-0.286,-0.2861,-0.2875,-0.2855,-0.2818,-0.2815,-0.2859,-0.2859,-0.286,0,-0.2902,-0.2889,-0.2876,-0.2873,-0.2869,-0.2863,-0.2861,-0.2858,-0.2853,-0.2848,-0.2845,-0.2839,-0.2835,-0.283,-0.2834,-0.2842,-0.2819,-0.2831,-0.282,-0.282,-0.2816,-0.2816,-0.2779,-0.2812,-0.2812,-0.2812,-0.2812,0,-0.2877,-0.2865,-0.2866,-0.2858,-0.2845,-0.2848,-0.2835,-0.2834,-0.2831,-0.2823,-0.2829,-0.2821,-0.2826,-0.2818,-0.2821,-0.2808,-0.2807,-0.2808,-0.2809,-0.2808,-0.2808,-0.2807,-0.2809,-0.2811,-0.2811,-0.2811,-0.2811,0,-0.2853,-0.2853,-0.2839,-0.2836,-0.2834,-0.2825,-0.2822,-0.2814,-0.2814,-0.2804,-0.2802,-0.2802,-0.2794,-0.2796,-0.2788,-0.2789,-0.2773,-0.2776,-0.2775,-0.2776,-0.2764,-0.2765,-0.2726,-0.2721,-0.2756,-0.2756,-0.2755,0,-0.2838,-0.2829,-0.2824,-0.2818,-0.2815,-0.2806,-0.2801,-0.2804,-0.2798,-0.2792,-0.2785,-0.2777,-0.2771,-0.2757,-0.2757,-0.275,-0.2753,-0.274,-0.2752,-0.2751,-0.2754,-0.2755,-0.2754,-0.2738,-0.2737,-0.2737,-0.2737,0,-0.2811,-0.2811,-0.2803,-0.2795,-0.2788,-0.2782,-0.2777,-0.2772,-0.2774,-0.2767,-0.2758,-0.2753,-0.2743,-0.2735,-0.2728,-0.2726,-0.2732,-0.2732,-0.273,-0.2729,-0.2729,-0.2729,-0.2769,-0.2734,-0.2734,-0.2734,-0.2735,-0.2735,-0.2792,-0.2783,-0.2778,-0.2769,-0.2764,-0.2758,-0.2751,-0.2749,-0.2741,-0.2733,-0.2734,-0.2724,-0.2719,-0.2711,-0.2708,-0.27,-0.2705,-0.2701,-0.27,-0.2699,-0.2698,-0.2729,-0.2699,-0.2699,-0.2699,-0.2699,-0.2699,0,-0.2766,-0.2762,-0.2753,-0.2744,-0.2737,-0.2741,-0.2734,-0.2728,-0.2718,-0.2713,-0.2706,-0.2695,-0.2687,-0.2685,-0.2677,-0.2671,-0.2674,-0.2669,-0.267,-0.267,-0.2694,-0.2697,-0.2667,-0.2667,-0.2667,-0.2667,-0.2667,-0.2667,-0.2751,-0.2737,-0.2736,-0.272,-0.2716,-0.2705,-0.2701,-0.2696,-0.2692,-0.2679,-0.2671,-0.267,-0.2666,-0.2657,-0.265,-0.265,-0.2647,-0.2642,-0.2642,-0.2665,-0.2668,-0.2671,-0.2675,-0.2641,-0.2641,-0.2619,-0.2619,-0.2619]},{"header":{"parameterUnit":"m.s-1","parameterCategory":1,"la1":30.2991,"la2":30.254,"lo1":-89.0895,"lo2":-89.0444,"dy":0.0017,"dx":0.0017,"nx":28,"ny":28,"refTime":"2026-02-11T09:00:00:Z","depth":0,"parameterNumber":3,"parameterNumberName":"V-component_of_WINDS"},"data":[0,0,0,0,0,0,0,0,0,0,0,0,0,0,0,0,0,0,0,0,0,0,0,0,0,0,0,0,0,0,0,0,0,0,0,0,0,0,0,0,0,0,0,0,0,0,0,0,0,0,0,0,0,0,0,0,0,0,-0.7421,-0.7421,0,-0.7429,-0.743,-0.743,-0.741,-0.741,-0.7409,-0.7409,-0.7423,-0.7424,-0.7425,0,0,0,0,0,0,0,0,0,0,0,0,0,-0.7392,-0.7392,-0.7421,-0.7421,-0.7421,-0.7429,-0.743,-0.743,-0.7411,-0.741,-0.7409,-0.7408,-0.7422,-0.7424,-0.7425,0,0,0,0,0,0,0,0,0,0,0,0,0,-0.7403,-0.7393,-0.7421,-0.7412,-0.7411,-0.7429,-0.743,-0.743,-0.7411,-0.741,-0.7409,-0.7408,-0.7422,-0.7423,-0.7425,-0.7453,0,0,-0.7429,-0.743,0,0,0,0,0,0,0,0,-0.7402,-0.7404,-0.7413,-0.7413,-0.7412,-0.7418,-0.7425,-0.7438,-0.7411,-0.7411,-0.7409,-0.7407,-0.7422,-0.7424,-0.7428,-0.7454,-0.7454,-0.7429,-0.743,-0.7431,-0.7431,0,0,0,0,0,0,0,-0.7402,-0.7404,-0.7424,-0.7414,-0.7413,-0.741,-0.741,-0.7427,-0.7422,-0.7411,-0.741,-0.7411,-0.7422,-0.7426,-0.7428,-0.7454,-0.7429,-0.7431,-0.7432,-0.7432,-0.7505,-0.7507,0,0,0,0,0,0,-0.7401,-0.7403,-0.7424,-0.7425,-0.7405,-0.7411,-0.7411,-0.7417,-0.7422,-0.7422,-0.7412,-0.741,-0.7424,-0.7426,-0.7428,-0.7462,-0.7431,-0.7432,-0.7433,-0.7504,-0.7506,-0.7507,0,0,0,0,0,0,-0.7401,-0.7403,-0.7424,-0.7413,-0.7416,-0.7412,-0.7419,-0.7418,-0.7422,-0.7422,-0.7422,-0.7417,-0.7423,-0.7426,-0.7447,-0.7462,-0.7433,-0.7434,-0.7503,-0.7505,-0.7506,-0.753,0,0,0,0,0,0,-0.74,-0.7403,-0.7413,-0.7414,-0.7416,-0.7441,-0.742,-0.7419,-0.7424,-0.7422,-0.7427,-0.7427,-0.7423,-0.7445,-0.7448,-0.7464,-0.7435,-0.7502,-0.7504,-0.7506,-0.7528,-0.7532,-0.7536,0,0,0,0,0,-0.7399,-0.742,-0.7413,-0.7416,-0.7428,-0.7442,-0.7443,-0.7437,-0.7425,-0.7436,-0.7436,-0.7427,-0.746,-0.7447,-0.7451,-0.7467,-0.7501,-0.7503,-0.7506,-0.7526,-0.7532,-0.7536,0,0,0,0,0,0,-0.7423,-0.742,-0.7413,-0.7434,-0.7438,-0.7438,-0.7451,-0.7443,-0.7451,-0.7449,-0.7443,-0.7444,-0.7467,-0.7469,-0.7455,-0.7495,-0.7479,-0.7482,-0.7493,-0.7498,-0.7502,-0.7502,-0.7437,0,0,0,0,0,-0.743,-0.744,-0.7437,-0.7457,-0.7459,-0.7455,-0.7461,-0.7455,-0.746,-0.7462,-0.7463,-0.747,-0.7482,-0.749,-0.7501,-0.7528,-0.753,-0.7541,-0.7545,-0.7548,-0.7552,-0.7568,-0.7573,-0.7515,-0.7515,-0.7515,0,0,-0.7446,-0.7446,-0.7453,-0.7462,-0.7464,-0.7476,-0.7456,-0.747,-0.7479,-0.7464,-0.7484,-0.7485,-0.7492,-0.7516,-0.7527,-0.7519,-0.7568,-0.7552,-0.7554,-0.7556,-0.7571,-0.7577,-0.7581,-0.7516,-0.7516,-0.7516,0,0,-0.7481,-0.7481,-0.7498,-0.75,-0.7504,-0.7501,-0.7505,-0.7506,-0.7506,-0.7525,-0.7515,-0.7527,-0.7547,-0.7552,-0.7558,-0.7595,-0.7588,-0.7599,-0.7621,-0.7637,-0.7641,-0.7645,-0.766,-0.7666,-0.7602,-0.7602,-0.7602,0,-0.7501,-0.7517,-0.7508,-0.7522,-0.7527,-0.7512,-0.753,-0.7533,-0.7541,-0.7546,-0.7536,-0.7561,-0.7565,-0.7591,-0.76,-0.7604,-0.761,-0.7599,-0.7641,-0.7645,-0.7649,-0.7663,-0.7668,-0.7604,-0.7604,-0.7603,-0.7603,0,-0.7542,-0.7554,-0.7567,-0.7573,-0.7579,-0.7595,-0.759,-0.7597,-0.7592,-0.759,-0.7611,-0.7614,-0.7626,-0.7631,-0.7626,-0.7657,-0.7652,-0.7642,-0.7625,-0.7656,-0.7669,-0.7674,-0.7606,-0.7605,-0.7605,-0.7605,0,0,-0.7594,-0.7594,-0.7599,-0.7602,-0.7604,-0.7614,-0.763,-0.7639,-0.7647,-0.7653,-0.7667,-0.7684,-0.7675,-0.7681,-0.7677,-0.769,-0.7722,-0.7678,-0.7679,-0.7688,-0.7758,-0.7766,-0.7773,-0.7716,-0.7717,-0.7718,-0.7758,0,-0.7629,-0.7655,-0.7647,-0.7673,-0.7685,-0.7671,-0.7685,-0.7689,-0.7688,-0.7699,-0.7699,-0.7712,-0.7697,-0.7701,-0.7714,-0.7715,-0.7736,-0.7712,-0.7731,-0.7732,-0.7731,-0.7779,-0.7788,-0.7826,-0.7762,-0.7763,-0.7764,0,-0.7675,-0.7681,-0.7708,-0.7709,-0.7714,-0.7726,-0.7735,-0.7745,-0.775,-0.7748,-0.7755,-0.7748,-0.7766,-0.7748,-0.7773,-0.7757,-0.7765,-0.7766,-0.7768,-0.7771,-0.7751,-0.7785,-0.7837,-0.7844,-0.7772,-0.7771,-0.7771,0,-0.7711,-0.7726,-0.7744,-0.7747,-0.7749,-0.7758,-0.7759,-0.7763,-0.777,-0.7778,-0.7783,-0.7794,-0.78,-0.7809,-0.7806,-0.7793,-0.7833,-0.7814,-0.7834,-0.7834,-0.7844,-0.7844,-0.79,-0.7847,-0.7847,-0.7846,-0.7846,0,-0.7753,-0.777,-0.7761,-0.7772,-0.7792,-0.7783,-0.7804,-0.7804,-0.7807,-0.782,-0.7809,-0.7822,-0.7816,-0.7829,-0.7826,-0.7849,-0.7851,-0.7852,-0.7852,-0.7854,-0.7854,-0.786,-0.7858,-0.7848,-0.7848,-0.7847,-0.7847,0,-0.7797,-0.7791,-0.781,-0.781,-0.781,-0.7825,-0.7825,-0.7837,-0.7835,-0.7851,-0.7855,-0.7853,-0.7867,-0.7864,-0.7881,-0.7879,-0.7907,-0.7903,-0.7905,-0.7905,-0.7925,-0.7924,-0.7989,-0.7997,-0.7937,-0.7937,-0.7938,0,-0.7825,-0.7838,-0.7838,-0.7845,-0.7847,-0.7858,-0.7864,-0.7857,-0.7864,-0.7871,-0.7882,-0.7895,-0.7906,-0.793,-0.7931,-0.7944,-0.7941,-0.7962,-0.7943,-0.7945,-0.7943,-0.7943,-0.7945,-0.7967,-0.7967,-0.7968,-0.7968,0,-0.7875,-0.7871,-0.788,-0.7888,-0.7895,-0.7902,-0.7907,-0.7914,-0.7907,-0.7916,-0.793,-0.7938,-0.7954,-0.7968,-0.798,-0.7983,-0.7976,-0.7974,-0.798,-0.7983,-0.7985,-0.7986,-0.7918,-0.7973,-0.7973,-0.7972,-0.7972,-0.7972,-0.7913,-0.7924,-0.7926,-0.7937,-0.7939,-0.7945,-0.7956,-0.7955,-0.7965,-0.7977,-0.7972,-0.7988,-0.7994,-0.8009,-0.8014,-0.8028,-0.802,-0.8028,-0.803,-0.8033,-0.8036,-0.7981,-0.803,-0.803,-0.803,-0.803,-0.803,0,-0.7964,-0.7964,-0.7974,-0.7981,-0.799,-0.7979,-0.7985,-0.7994,-0.8007,-0.8012,-0.8022,-0.8039,-0.8052,-0.8054,-0.8068,-0.8079,-0.8076,-0.8083,-0.8083,-0.8084,-0.8041,-0.8036,-0.8085,-0.8085,-0.8085,-0.8085,-0.8085,-0.8085,-0.7991,-0.801,-0.8007,-0.8027,-0.8028,-0.8043,-0.8047,-0.8053,-0.8057,-0.8075,-0.8086,-0.8086,-0.8091,-0.8104,-0.8117,-0.8117,-0.8124,-0.8132,-0.8132,-0.8092,-0.8087,-0.8082,-0.8077,-0.8133,-0.8134,-0.8174,-0.8174,-0.8174]}]]